Time,TemperatureF,DewpointF,PressureIn,WindDirection,WindDirectionDegrees,WindSpeedMPH,WindSpeedGustMPH,Humidity,HourlyPrecipIn,Conditions,Clouds,dailyrainin,SoftwareType,DateUTC
2013-05-14 00:00:00,51.6,41.4,30.29,NNW,338,0.0,0.0,68,0.00,,,0.00,meteohub,2013-05-14 04:00:00,
2013-05-14 00:01:00,51.6,41.0,30.29,NNW,338,0.0,0.0,67,0.00,,,0.00,meteohub,2013-05-14 04:01:00,
2013-05-14 00:02:00,51.6,41.0,30.29,NNW,338,0.0,0.0,67,0.00,,,0.00,meteohub,2013-05-14 04:02:00,
2013-05-14 00:08:00,52.0,40.1,30.29,NNW,338,0.0,0.0,64,0.00,,,0.00,meteohub,2013-05-14 04:08:00,
2013-05-14 00:13:00,52.2,39.9,30.29,NNW,338,0.0,0.0,63,0.00,,,0.00,meteohub,2013-05-14 04:13:00,
2013-05-14 00:19:00,52.2,39.9,30.29,NNW,338,0.0,0.0,63,0.00,,,0.00,meteohub,2013-05-14 04:19:00,
2013-05-14 00:24:00,52.2,39.6,30.29,NNW,338,0.0,0.0,62,0.00,,,0.00,meteohub,2013-05-14 04:24:00,
2013-05-14 00:29:00,52.2,39.6,30.29,NNW,338,0.0,0.0,62,0.00,,,0.00,meteohub,2013-05-14 04:29:00,
2013-05-14 00:34:00,52.2,39.2,30.30,NNW,338,0.0,0.0,61,0.00,,,0.00,meteohub,2013-05-14 04:34:00,
2013-05-14 00:39:00,52.2,38.7,30.29,NNW,338,0.0,0.0,60,0.00,,,0.00,meteohub,2013-05-14 04:39:00,
2013-05-14 00:44:00,52.2,39.6,30.30,NNW,338,0.0,0.0,62,0.00,,,0.00,meteohub,2013-05-14 04:44:00,
2013-05-14 00:49:00,52.0,39.7,30.30,NNW,338,0.0,0.0,63,0.00,,,0.00,meteohub,2013-05-14 04:49:00,
2013-05-14 00:54:00,51.8,39.6,30.30,NNW,338,0.0,0.0,63,0.00,,,0.00,meteohub,2013-05-14 04:54:00,
2013-05-14 00:59:00,51.4,39.7,30.29,NNW,338,0.0,0.0,64,0.00,,,0.00,meteohub,2013-05-14 04:59:00,
2013-05-14 01:04:00,51.1,39.7,30.29,NNW,338,0.0,0.0,65,0.00,,,0.00,meteohub,2013-05-14 05:04:00,
2013-05-14 01:09:00,50.9,39.6,30.29,NNW,338,0.0,0.0,65,0.00,,,0.00,meteohub,2013-05-14 05:09:00,
2013-05-14 01:14:00,50.5,39.2,30.29,NNW,338,0.0,0.0,65,0.00,,,0.00,meteohub,2013-05-14 05:14:00,
2013-05-14 01:19:00,50.4,39.4,30.29,NNW,338,0.0,0.0,66,0.00,,,0.00,meteohub,2013-05-14 05:19:00,
2013-05-14 01:24:00,50.2,39.2,30.29,NNW,338,0.0,0.0,66,0.00,,,0.00,meteohub,2013-05-14 05:24:00,
2013-05-14 01:29:00,49.6,39.6,30.30,NNW,338,0.0,0.0,68,0.00,,,0.00,meteohub,2013-05-14 05:29:00,
2013-05-14 01:34:00,49.5,39.4,30.29,NNW,338,0.0,0.0,68,0.00,,,0.00,meteohub,2013-05-14 05:34:00,
2013-05-14 01:39:00,49.1,39.4,30.29,NNW,338,0.0,0.0,69,0.00,,,0.00,meteohub,2013-05-14 05:39:00,
2013-05-14 01:44:00,48.9,39.2,30.29,NNW,338,0.0,0.0,69,0.00,,,0.00,meteohub,2013-05-14 05:44:00,
2013-05-14 01:50:00,48.7,39.4,30.29,NNW,338,0.0,0.0,70,0.00,,,0.00,meteohub,2013-05-14 05:50:00,
2013-05-14 01:55:00,48.6,39.2,30.29,NNW,338,0.0,0.0,70,0.00,,,0.00,meteohub,2013-05-14 05:55:00,
2013-05-14 02:00:00,48.4,39.4,30.29,NNW,338,0.0,0.0,71,0.00,,,0.00,meteohub,2013-05-14 06:00:00,
2013-05-14 02:05:00,48.4,39.4,30.29,NNW,338,0.0,0.0,71,0.00,,,0.00,meteohub,2013-05-14 06:05:00,
2013-05-14 02:10:00,47.8,39.2,30.29,NNW,338,0.0,0.0,72,0.00,,,0.00,meteohub,2013-05-14 06:10:00,
2013-05-14 02:15:00,47.7,39.4,30.29,NNW,338,0.0,0.0,73,0.00,,,0.00,meteohub,2013-05-14 06:15:00,
2013-05-14 02:21:00,47.5,39.2,30.29,NNW,338,0.0,0.0,73,0.00,,,0.00,meteohub,2013-05-14 06:21:00,
2013-05-14 02:26:00,47.3,39.4,30.28,NNW,338,0.0,0.0,74,0.00,,,0.00,meteohub,2013-05-14 06:26:00,
2013-05-14 02:31:00,47.1,39.2,30.28,NNW,338,0.0,0.0,74,0.00,,,0.00,meteohub,2013-05-14 06:31:00,
2013-05-14 02:36:00,46.9,39.0,30.28,NNW,338,0.0,0.0,74,0.00,,,0.00,meteohub,2013-05-14 06:36:00,
2013-05-14 02:41:00,46.8,38.8,30.28,NNW,338,0.0,0.0,74,0.00,,,0.00,meteohub,2013-05-14 06:41:00,
2013-05-14 02:46:00,46.6,38.7,30.29,NNW,338,0.0,0.0,74,0.00,,,0.00,meteohub,2013-05-14 06:46:00,
2013-05-14 02:51:00,46.6,38.7,30.28,NNW,338,0.0,0.0,74,0.00,,,0.00,meteohub,2013-05-14 06:51:00,
2013-05-14 02:56:00,46.4,38.8,30.29,NNW,338,0.0,0.0,75,0.00,,,0.00,meteohub,2013-05-14 06:56:00,
2013-05-14 03:01:00,46.2,38.7,30.29,NNW,338,0.0,0.0,75,0.00,,,0.00,meteohub,2013-05-14 07:01:00,
2013-05-14 03:06:00,46.0,38.8,30.29,NNW,338,0.0,0.0,76,0.00,,,0.00,meteohub,2013-05-14 07:06:00,
2013-05-14 03:12:00,45.7,38.8,30.29,NNW,338,0.0,0.0,77,0.00,,,0.00,meteohub,2013-05-14 07:12:00,
2013-05-14 03:17:00,45.5,38.7,30.29,NNW,338,0.0,0.0,77,0.00,,,0.00,meteohub,2013-05-14 07:17:00,
2013-05-14 03:22:00,45.5,39.0,30.29,NNW,338,0.0,0.0,78,0.00,,,0.00,meteohub,2013-05-14 07:22:00,
2013-05-14 03:27:00,45.3,39.2,30.29,NNW,338,0.0,0.0,79,0.00,,,0.00,meteohub,2013-05-14 07:27:00,
2013-05-14 03:32:00,45.3,39.2,30.30,NNW,338,0.0,0.0,79,0.00,,,0.00,meteohub,2013-05-14 07:32:00,
2013-05-14 03:37:00,45.1,39.4,30.29,NNW,338,0.0,0.0,80,0.00,,,0.00,meteohub,2013-05-14 07:37:00,
2013-05-14 03:42:00,45.1,39.4,30.30,NNW,338,0.0,0.0,80,0.00,,,0.00,meteohub,2013-05-14 07:42:00,
2013-05-14 03:47:00,45.0,39.6,30.30,NNW,338,0.0,0.0,81,0.00,,,0.00,meteohub,2013-05-14 07:47:00,
2013-05-14 03:53:00,44.6,38.8,30.30,NNW,338,0.0,0.0,80,0.00,,,0.00,meteohub,2013-05-14 07:53:00,
2013-05-14 03:58:00,44.4,39.2,30.30,NNW,338,0.0,0.0,82,0.00,,,0.00,meteohub,2013-05-14 07:58:00,
2013-05-14 04:03:00,44.4,39.2,30.30,NNW,338,0.0,0.0,82,0.00,,,0.00,meteohub,2013-05-14 08:03:00,
2013-05-14 04:08:00,44.2,39.0,30.30,NNW,338,0.0,0.0,82,0.00,,,0.00,meteohub,2013-05-14 08:08:00,
2013-05-14 04:13:00,44.1,39.2,30.30,NNW,338,0.0,0.0,83,0.00,,,0.00,meteohub,2013-05-14 08:13:00,
2013-05-14 04:18:00,44.1,39.2,30.30,NNW,338,0.0,0.0,83,0.00,,,0.00,meteohub,2013-05-14 08:18:00,
2013-05-14 04:23:00,43.9,39.0,30.30,NNW,338,0.0,0.0,83,0.00,,,0.00,meteohub,2013-05-14 08:23:00,
2013-05-14 04:28:00,43.9,39.0,30.30,NNW,338,0.0,0.0,83,0.00,,,0.00,meteohub,2013-05-14 08:28:00,
2013-05-14 04:33:00,43.7,38.8,30.30,NNW,338,0.0,0.0,83,0.00,,,0.00,meteohub,2013-05-14 08:33:00,
2013-05-14 04:38:00,43.5,39.0,30.30,NNW,338,0.0,0.0,84,0.00,,,0.00,meteohub,2013-05-14 08:38:00,
2013-05-14 04:43:00,43.3,38.8,30.30,NNW,338,0.0,0.0,84,0.00,,,0.00,meteohub,2013-05-14 08:43:00,
2013-05-14 04:49:00,43.2,38.7,30.30,NNW,338,0.0,0.0,84,0.00,,,0.00,meteohub,2013-05-14 08:49:00,
2013-05-14 04:54:00,43.2,38.7,30.30,NNW,338,0.0,0.0,84,0.00,,,0.00,meteohub,2013-05-14 08:54:00,
2013-05-14 04:59:00,43.0,38.8,30.30,NNW,338,0.0,0.0,85,0.00,,,0.00,meteohub,2013-05-14 08:59:00,
2013-05-14 05:04:00,43.0,38.8,30.30,NNW,338,0.0,0.0,85,0.00,,,0.00,meteohub,2013-05-14 09:04:00,
2013-05-14 05:09:00,43.0,38.8,30.30,NNW,338,0.0,0.0,85,0.00,,,0.00,meteohub,2013-05-14 09:09:00,
2013-05-14 05:14:00,43.0,38.8,30.30,NNW,338,0.0,0.0,85,0.00,,,0.00,meteohub,2013-05-14 09:14:00,
2013-05-14 05:19:00,42.8,38.8,30.30,NNW,338,0.0,0.0,86,0.00,,,0.00,meteohub,2013-05-14 09:19:00,
2013-05-14 05:24:00,42.8,38.8,30.31,NNW,338,0.0,0.0,86,0.00,,,0.00,meteohub,2013-05-14 09:24:00,
2013-05-14 05:30:00,42.8,38.8,30.30,NNW,338,0.0,0.0,86,0.00,,,0.00,meteohub,2013-05-14 09:30:00,
2013-05-14 05:35:00,42.6,39.0,30.31,NNW,338,0.0,0.0,87,0.00,,,0.00,meteohub,2013-05-14 09:35:00,
2013-05-14 05:40:00,42.6,39.0,30.31,NNW,338,0.0,0.0,87,0.00,,,0.00,meteohub,2013-05-14 09:40:00,
2013-05-14 05:45:00,42.4,39.2,30.31,NNW,338,0.0,0.0,88,0.00,,,0.00,meteohub,2013-05-14 09:45:00,
2013-05-14 05:50:00,42.4,39.2,30.31,NNW,338,0.0,0.0,88,0.00,,,0.00,meteohub,2013-05-14 09:50:00,
2013-05-14 05:55:00,42.3,39.0,30.31,NNW,338,0.0,0.0,88,0.00,,,0.00,meteohub,2013-05-14 09:55:00,
2013-05-14 06:00:00,42.3,39.0,30.31,NNW,338,0.0,0.0,88,0.00,,,0.00,meteohub,2013-05-14 10:00:00,
2013-05-14 06:05:00,42.1,38.8,30.31,NNW,338,0.0,0.0,88,0.00,,,0.00,meteohub,2013-05-14 10:05:00,
2013-05-14 06:10:00,42.1,38.8,30.32,NNW,338,0.0,0.0,88,0.00,,,0.00,meteohub,2013-05-14 10:10:00,
2013-05-14 06:15:00,41.9,38.7,30.32,NNW,338,0.0,0.0,88,0.00,,,0.00,meteohub,2013-05-14 10:15:00,
2013-05-14 06:21:00,41.9,38.8,30.32,NNW,338,0.0,0.0,89,0.00,,,0.00,meteohub,2013-05-14 10:21:00,
2013-05-14 06:26:00,41.9,38.8,30.32,North,0,0.0,0.0,89,0.00,,,0.00,meteohub,2013-05-14 10:26:00,
2013-05-14 06:31:00,42.1,39.0,30.32,North,0,0.0,0.0,89,0.00,,,0.00,meteohub,2013-05-14 10:31:00,
2013-05-14 06:37:00,42.1,39.4,30.32,West,270,0.0,0.0,90,0.00,,,0.00,meteohub,2013-05-14 10:37:00,
2013-05-14 06:42:00,42.1,39.4,30.32,West,270,0.0,0.0,90,0.00,,,0.00,meteohub,2013-05-14 10:42:00,
2013-05-14 06:47:00,42.1,39.6,30.32,West,270,0.0,0.0,91,0.00,,,0.00,meteohub,2013-05-14 10:47:00,
2013-05-14 06:52:00,42.3,39.7,30.33,West,270,0.0,0.0,91,0.00,,,0.00,meteohub,2013-05-14 10:52:00,
2013-05-14 06:57:00,42.4,39.9,30.33,West,270,0.0,0.0,91,0.00,,,0.00,meteohub,2013-05-14 10:57:00,
2013-05-14 07:03:00,42.8,40.3,30.33,West,270,0.0,0.0,91,0.00,,,0.00,meteohub,2013-05-14 11:03:00,
2013-05-14 07:08:00,43.0,40.5,30.33,West,270,0.0,0.0,91,0.00,,,0.00,meteohub,2013-05-14 11:08:00,
2013-05-14 07:13:00,43.3,41.2,30.33,West,270,0.0,0.0,92,0.00,,,0.00,meteohub,2013-05-14 11:13:00,
2013-05-14 07:18:00,43.7,41.5,30.33,West,270,0.0,0.0,92,0.00,,,0.00,meteohub,2013-05-14 11:18:00,
2013-05-14 07:23:00,44.4,42.3,30.33,West,270,0.0,0.0,92,0.00,,,0.00,meteohub,2013-05-14 11:23:00,
2013-05-14 07:28:00,44.8,42.3,30.34,West,270,0.0,0.0,91,0.00,,,0.00,meteohub,2013-05-14 11:28:00,
2013-05-14 07:33:00,45.1,42.6,30.33,West,270,0.0,0.0,91,0.00,,,0.00,meteohub,2013-05-14 11:33:00,
2013-05-14 07:38:00,45.7,43.2,30.34,West,270,0.0,0.0,91,0.00,,,0.00,meteohub,2013-05-14 11:38:00,
2013-05-14 07:43:00,46.2,43.5,30.34,West,270,0.0,0.0,90,0.00,,,0.00,meteohub,2013-05-14 11:43:00,
2013-05-14 07:48:00,46.8,43.3,30.34,West,270,0.0,0.0,88,0.00,,,0.00,meteohub,2013-05-14 11:48:00,
2013-05-14 07:53:00,47.3,43.7,30.34,West,270,0.0,0.0,87,0.00,,,0.00,meteohub,2013-05-14 11:53:00,
2013-05-14 07:59:00,47.7,43.3,30.34,West,270,0.0,0.0,85,0.00,,,0.00,meteohub,2013-05-14 11:59:00,
2013-05-14 08:04:00,48.6,43.0,30.34,NNW,338,0.0,0.0,81,0.00,,,0.00,meteohub,2013-05-14 12:04:00,
2013-05-14 08:09:00,49.3,42.8,30.34,NNW,338,0.0,0.0,78,0.00,,,0.00,meteohub,2013-05-14 12:09:00,
2013-05-14 08:14:00,50.0,42.8,30.34,NNW,338,0.0,0.0,76,0.00,,,0.00,meteohub,2013-05-14 12:14:00,
2013-05-14 08:20:00,50.5,42.6,30.34,NNW,338,0.0,0.0,74,0.00,,,0.00,meteohub,2013-05-14 12:20:00,
2013-05-14 08:25:00,51.3,43.3,30.34,NNW,338,0.0,0.0,74,0.00,,,0.00,meteohub,2013-05-14 12:25:00,
2013-05-14 08:30:00,51.6,43.3,30.34,NNW,338,0.0,0.0,73,0.00,,,0.00,meteohub,2013-05-14 12:30:00,
2013-05-14 08:36:00,52.5,42.3,30.34,NNW,338,0.0,1.0,68,0.00,,,0.00,meteohub,2013-05-14 12:36:00,
2013-05-14 08:42:00,53.4,41.9,30.33,NNW,338,0.0,1.0,65,0.00,,,0.00,meteohub,2013-05-14 12:42:00,
2013-05-14 08:47:00,54.0,42.1,30.34,NNW,338,0.0,1.0,64,0.00,,,0.00,meteohub,2013-05-14 12:47:00,
2013-05-14 08:52:00,54.5,41.7,30.34,NNE,23,0.0,0.0,62,0.00,,,0.00,meteohub,2013-05-14 12:52:00,
2013-05-14 08:57:00,54.7,40.6,30.35,NNE,23,0.0,1.0,59,0.00,,,0.00,meteohub,2013-05-14 12:57:00,
2013-05-14 09:02:00,55.2,40.3,30.34,NNE,23,0.0,1.0,57,0.00,,,0.00,meteohub,2013-05-14 13:02:00,
2013-05-14 09:07:00,55.8,38.8,30.34,NNE,23,0.0,1.0,53,0.00,,,0.00,meteohub,2013-05-14 13:07:00,
2013-05-14 09:12:00,56.1,40.1,30.34,NW,315,0.0,2.0,55,0.00,,,0.00,meteohub,2013-05-14 13:12:00,
2013-05-14 09:17:00,56.5,39.0,30.34,West,270,0.0,2.0,52,0.00,,,0.00,meteohub,2013-05-14 13:17:00,
2013-05-14 09:22:00,56.8,39.4,30.34,NW,315,0.0,2.0,52,0.00,,,0.00,meteohub,2013-05-14 13:22:00,
2013-05-14 09:27:00,57.2,38.3,30.33,North,0,0.0,0.0,49,0.00,,,0.00,meteohub,2013-05-14 13:27:00,
2013-05-14 09:32:00,57.7,36.5,30.33,NW,315,0.0,0.0,45,0.00,,,0.00,meteohub,2013-05-14 13:32:00,
2013-05-14 09:38:00,58.3,36.5,30.33,SE,135,0.0,0.0,44,0.00,,,0.00,meteohub,2013-05-14 13:38:00,
2013-05-14 09:43:00,58.6,36.9,30.33,South,180,0.0,0.0,44,0.00,,,0.00,meteohub,2013-05-14 13:43:00,
2013-05-14 09:48:00,58.8,36.3,30.34,South,180,0.0,0.0,43,0.00,,,0.00,meteohub,2013-05-14 13:48:00,
2013-05-14 09:53:00,58.8,36.3,30.33,South,180,0.0,0.0,43,0.00,,,0.00,meteohub,2013-05-14 13:53:00,
2013-05-14 09:58:00,59.0,36.5,30.33,West,270,0.0,0.0,43,0.00,,,0.00,meteohub,2013-05-14 13:58:00,
2013-05-14 10:03:00,59.4,36.3,30.34,West,270,0.0,0.0,42,0.00,,,0.00,meteohub,2013-05-14 14:03:00,
2013-05-14 10:08:00,59.7,35.4,30.34,NW,315,0.0,0.0,40,0.00,,,0.00,meteohub,2013-05-14 14:08:00,
2013-05-14 10:14:00,59.9,34.2,30.34,NW,315,0.0,0.0,38,0.00,,,0.00,meteohub,2013-05-14 14:14:00,
2013-05-14 10:19:00,60.1,33.8,30.34,NW,315,0.0,0.0,37,0.00,,,0.00,meteohub,2013-05-14 14:19:00,
2013-05-14 10:24:00,60.4,34.7,30.34,East,90,0.0,0.0,38,0.00,,,0.00,meteohub,2013-05-14 14:24:00,
2013-05-14 10:29:00,60.6,34.2,30.34,South,180,0.0,1.0,37,0.00,,,0.00,meteohub,2013-05-14 14:29:00,
2013-05-14 10:34:00,60.8,32.9,30.34,South,180,0.0,1.0,35,0.00,,,0.00,meteohub,2013-05-14 14:34:00,
2013-05-14 10:39:00,61.0,32.4,30.34,South,180,0.0,1.0,34,0.00,,,0.00,meteohub,2013-05-14 14:39:00,
2013-05-14 10:44:00,61.7,33.1,30.35,NW,315,0.0,1.0,34,0.00,,,0.00,meteohub,2013-05-14 14:44:00,
2013-05-14 10:49:00,62.2,34.2,30.34,WNW,293,0.0,1.0,35,0.00,,,0.00,meteohub,2013-05-14 14:49:00,
2013-05-14 10:54:00,63.3,36.7,30.35,NE,45,0.0,0.0,37,0.00,,,0.00,meteohub,2013-05-14 14:54:00,
2013-05-14 11:00:00,64.2,34.5,30.35,West,270,0.0,0.0,33,0.00,,,0.00,meteohub,2013-05-14 15:00:00,
2013-05-14 11:05:00,64.2,34.5,30.35,NW,315,0.0,0.0,33,0.00,,,0.00,meteohub,2013-05-14 15:05:00,
2013-05-14 11:10:00,64.8,36.5,30.35,North,0,0.0,0.0,35,0.00,,,0.00,meteohub,2013-05-14 15:10:00,
2013-05-14 11:15:00,65.5,37.0,30.35,NW,315,0.0,0.0,35,0.00,,,0.00,meteohub,2013-05-14 15:15:00,
2013-05-14 11:20:00,65.7,37.2,30.35,SW,225,0.0,2.0,35,0.00,,,0.00,meteohub,2013-05-14 15:20:00,
2013-05-14 11:25:00,65.8,37.4,30.35,SW,225,0.0,2.0,35,0.00,,,0.00,meteohub,2013-05-14 15:25:00,
2013-05-14 11:30:00,65.8,37.4,30.34,NW,315,0.0,2.0,35,0.00,,,0.00,meteohub,2013-05-14 15:30:00,
2013-05-14 11:35:00,66.0,37.6,30.34,NW,315,1.0,0.0,35,0.00,,,0.00,meteohub,2013-05-14 15:35:00,
2013-05-14 11:41:00,66.2,35.4,30.34,North,0,0.0,1.0,32,0.00,,,0.00,meteohub,2013-05-14 15:41:00,
2013-05-14 11:46:00,66.4,37.2,30.33,NW,315,0.0,1.0,34,0.00,,,0.00,meteohub,2013-05-14 15:46:00,
2013-05-14 11:51:00,66.6,35.8,30.34,NW,315,0.0,1.0,32,0.00,,,0.00,meteohub,2013-05-14 15:51:00,
2013-05-14 11:56:00,66.9,37.6,30.33,NE,45,0.0,1.0,34,0.00,,,0.00,meteohub,2013-05-14 15:56:00,
2013-05-14 12:01:00,66.9,36.1,30.34,East,90,0.0,1.0,32,0.00,,,0.00,meteohub,2013-05-14 16:01:00,
2013-05-14 12:06:00,67.1,37.8,30.33,NW,315,0.0,1.0,34,0.00,,,0.00,meteohub,2013-05-14 16:06:00,
2013-05-14 12:11:00,67.3,37.9,30.33,NW,315,0.0,1.0,34,0.00,,,0.00,meteohub,2013-05-14 16:11:00,
2013-05-14 12:17:00,66.7,38.3,30.33,West,270,0.0,0.0,35,0.00,,,0.00,meteohub,2013-05-14 16:17:00,
2013-05-14 12:22:00,66.7,37.4,30.33,NW,315,0.0,0.0,34,0.00,,,0.00,meteohub,2013-05-14 16:22:00,
2013-05-14 12:28:00,66.6,37.4,30.32,SW,225,0.0,0.0,34,0.00,,,0.00,meteohub,2013-05-14 16:28:00,
2013-05-14 12:33:00,66.7,38.3,30.32,NW,315,0.0,0.0,35,0.00,,,0.00,meteohub,2013-05-14 16:33:00,
2013-05-14 12:38:00,66.6,37.4,30.32,West,270,0.0,0.0,34,0.00,,,0.00,meteohub,2013-05-14 16:38:00,
2013-05-14 12:43:00,66.2,36.3,30.32,West,270,0.0,0.0,33,0.00,,,0.00,meteohub,2013-05-14 16:43:00,
2013-05-14 12:48:00,66.2,37.0,30.31,SW,225,0.0,0.0,34,0.00,,,0.00,meteohub,2013-05-14 16:48:00,
2013-05-14 12:53:00,66.6,37.4,30.31,NW,315,0.0,0.0,34,0.00,,,0.00,meteohub,2013-05-14 16:53:00,
2013-05-14 12:58:00,66.4,36.3,30.31,SW,225,0.0,0.0,33,0.00,,,0.00,meteohub,2013-05-14 16:58:00,
2013-05-14 13:03:00,66.6,37.4,30.30,North,0,0.0,0.0,34,0.00,,,0.00,meteohub,2013-05-14 17:03:00,
2013-05-14 13:08:00,66.9,37.6,30.30,West,270,0.0,2.0,34,0.00,,,0.00,meteohub,2013-05-14 17:08:00,
2013-05-14 13:13:00,67.1,38.5,30.30,West,270,0.0,2.0,35,0.00,,,0.00,meteohub,2013-05-14 17:13:00,
2013-05-14 13:18:00,67.3,37.9,30.30,South,180,0.0,2.0,34,0.00,,,0.00,meteohub,2013-05-14 17:18:00,
2013-05-14 13:23:00,67.3,37.9,30.29,West,270,0.0,0.0,34,0.00,,,0.00,meteohub,2013-05-14 17:23:00,
2013-05-14 13:28:00,67.3,37.9,30.29,WSW,248,0.0,0.0,34,0.00,,,0.00,meteohub,2013-05-14 17:28:00,
2013-05-14 13:34:00,67.3,37.9,30.29,NW,315,0.0,0.0,34,0.00,,,0.00,meteohub,2013-05-14 17:34:00,
2013-05-14 13:39:00,67.3,34.7,30.28,West,270,0.0,0.0,30,0.00,,,0.00,meteohub,2013-05-14 17:39:00,
2013-05-14 13:45:00,67.1,35.4,30.28,South,180,0.0,0.0,31,0.00,,,0.00,meteohub,2013-05-14 17:45:00,
2013-05-14 13:50:00,66.7,37.4,30.28,SW,225,0.0,0.0,34,0.00,,,0.00,meteohub,2013-05-14 17:50:00,
2013-05-14 13:55:00,67.1,37.8,30.29,West,270,0.0,0.0,34,0.00,,,0.00,meteohub,2013-05-14 17:55:00,
2013-05-14 14:00:00,67.1,34.7,30.28,NW,315,0.0,0.0,30,0.00,,,0.00,meteohub,2013-05-14 18:00:00,
2013-05-14 14:06:00,67.3,37.9,30.28,SE,135,0.0,2.0,34,0.00,,,0.00,meteohub,2013-05-14 18:06:00,
2013-05-14 14:11:00,67.5,37.4,30.28,NW,315,0.0,2.0,33,0.00,,,0.00,meteohub,2013-05-14 18:11:00,
2013-05-14 14:16:00,67.6,39.0,30.28,SW,225,0.0,1.0,35,0.00,,,0.00,meteohub,2013-05-14 18:16:00,
2013-05-14 14:21:00,68.0,37.8,30.28,NW,315,0.0,1.0,33,0.00,,,0.00,meteohub,2013-05-14 18:21:00,
2013-05-14 14:27:00,68.2,36.3,30.28,NW,315,2.0,2.0,31,0.00,,,0.00,meteohub,2013-05-14 18:27:00,
2013-05-14 14:32:00,68.2,36.3,30.28,West,270,0.0,2.0,31,0.00,,,0.00,meteohub,2013-05-14 18:32:00,
2013-05-14 14:37:00,68.2,37.2,30.28,SW,225,0.0,2.0,32,0.00,,,0.00,meteohub,2013-05-14 18:37:00,
2013-05-14 14:42:00,68.4,35.8,30.27,SSE,158,0.0,2.0,30,0.00,,,0.00,meteohub,2013-05-14 18:42:00,
2013-05-14 14:47:00,68.4,35.8,30.27,North,0,2.0,3.0,30,0.00,,,0.00,meteohub,2013-05-14 18:47:00,
2013-05-14 14:52:00,68.5,36.7,30.26,South,180,2.0,4.0,31,0.00,,,0.00,meteohub,2013-05-14 18:52:00,
2013-05-14 14:57:00,68.5,36.7,30.26,West,270,0.0,4.0,31,0.00,,,0.00,meteohub,2013-05-14 18:57:00,
2013-05-14 15:02:00,68.9,38.7,30.26,SW,225,0.0,4.0,33,0.00,,,0.00,meteohub,2013-05-14 19:02:00,
2013-05-14 15:07:00,69.3,36.5,30.25,West,270,0.0,2.0,30,0.00,,,0.00,meteohub,2013-05-14 19:07:00,
2013-05-14 15:12:00,69.4,35.8,30.25,NW,315,2.0,2.0,29,0.00,,,0.00,meteohub,2013-05-14 19:12:00,
2013-05-14 15:17:00,69.4,35.8,30.25,NW,315,0.0,3.0,29,0.00,,,0.00,meteohub,2013-05-14 19:17:00,
2013-05-14 15:22:00,69.4,34.9,30.25,NE,45,0.0,3.0,28,0.00,,,0.00,meteohub,2013-05-14 19:22:00,
2013-05-14 15:27:00,69.4,36.7,30.25,NW,315,1.0,3.0,30,0.00,,,0.00,meteohub,2013-05-14 19:27:00,
2013-05-14 15:32:00,69.4,36.7,30.25,NW,315,3.0,3.0,30,0.00,,,0.00,meteohub,2013-05-14 19:32:00,
2013-05-14 15:38:00,69.4,35.8,30.24,SE,135,1.0,3.0,29,0.00,,,0.00,meteohub,2013-05-14 19:38:00,
2013-05-14 15:43:00,69.4,35.8,30.25,North,0,1.0,3.0,29,0.00,,,0.00,meteohub,2013-05-14 19:43:00,
2013-05-14 15:48:00,69.6,37.6,30.24,West,270,0.0,3.0,31,0.00,,,0.00,meteohub,2013-05-14 19:48:00,
2013-05-14 15:53:00,69.8,37.0,30.24,North,0,2.0,2.0,30,0.00,,,0.00,meteohub,2013-05-14 19:53:00,
2013-05-14 15:58:00,69.8,37.0,30.24,SE,135,0.0,2.0,30,0.00,,,0.00,meteohub,2013-05-14 19:58:00,
2013-05-14 16:03:00,69.8,37.8,30.24,South,180,0.0,2.0,31,0.00,,,0.00,meteohub,2013-05-14 20:03:00,
2013-05-14 16:08:00,70.0,38.8,30.23,South,180,2.0,2.0,32,0.00,,,0.00,meteohub,2013-05-14 20:08:00,
2013-05-14 16:13:00,69.8,37.0,30.23,South,180,0.0,2.0,30,0.00,,,0.00,meteohub,2013-05-14 20:13:00,
2013-05-14 16:19:00,69.8,36.1,30.23,South,180,0.0,2.0,29,0.00,,,0.00,meteohub,2013-05-14 20:19:00,
2013-05-14 16:24:00,69.8,37.0,30.23,South,180,0.0,2.0,30,0.00,,,0.00,meteohub,2013-05-14 20:24:00,
2013-05-14 16:29:00,69.8,38.7,30.22,South,180,0.0,0.0,32,0.00,,,0.00,meteohub,2013-05-14 20:29:00,
2013-05-14 16:34:00,70.0,38.8,30.23,South,180,0.0,0.0,32,0.00,,,0.00,meteohub,2013-05-14 20:34:00,
2013-05-14 16:39:00,70.3,37.4,30.23,South,180,0.0,0.0,30,0.00,,,0.00,meteohub,2013-05-14 20:39:00,
2013-05-14 16:44:00,70.3,39.0,30.23,South,180,2.0,0.0,32,0.00,,,0.00,meteohub,2013-05-14 20:44:00,
2013-05-14 16:49:00,70.3,39.0,30.23,SE,135,2.0,0.0,32,0.00,,,0.00,meteohub,2013-05-14 20:49:00,
2013-05-14 16:54:00,69.8,36.1,30.22,SE,135,3.0,3.0,29,0.00,,,0.00,meteohub,2013-05-14 20:54:00,
2013-05-14 16:59:00,69.4,38.3,30.23,West,270,2.0,2.0,32,0.00,,,0.00,meteohub,2013-05-14 20:59:00,
2013-05-14 17:04:00,69.4,39.0,30.22,West,270,0.0,3.0,33,0.00,,,0.00,meteohub,2013-05-14 21:04:00,
2013-05-14 17:10:00,69.6,39.2,30.22,NW,315,0.0,3.0,33,0.00,,,0.00,meteohub,2013-05-14 21:10:00,
2013-05-14 17:15:00,69.8,38.7,30.23,South,180,0.0,2.0,32,0.00,,,0.00,meteohub,2013-05-14 21:15:00,
2013-05-14 17:20:00,70.0,39.6,30.23,South,180,0.0,1.0,33,0.00,,,0.00,meteohub,2013-05-14 21:20:00,
2013-05-14 17:25:00,69.8,38.7,30.23,NW,315,0.0,0.0,32,0.00,,,0.00,meteohub,2013-05-14 21:25:00,
2013-05-14 17:30:00,69.6,39.2,30.23,South,180,0.0,0.0,33,0.00,,,0.00,meteohub,2013-05-14 21:30:00,
2013-05-14 17:35:00,69.4,39.0,30.22,South,180,0.0,0.0,33,0.00,,,0.00,meteohub,2013-05-14 21:35:00,
2013-05-14 17:40:00,69.4,39.0,30.22,South,180,0.0,0.0,33,0.00,,,0.00,meteohub,2013-05-14 21:40:00,
2013-05-14 17:45:00,69.4,39.9,30.22,South,180,0.0,0.0,34,0.00,,,0.00,meteohub,2013-05-14 21:45:00,
2013-05-14 17:50:00,69.3,38.8,30.22,West,270,0.0,0.0,33,0.00,,,0.00,meteohub,2013-05-14 21:50:00,
2013-05-14 17:55:00,69.3,39.7,30.22,NW,315,0.0,0.0,34,0.00,,,0.00,meteohub,2013-05-14 21:55:00,
2013-05-14 18:00:00,69.6,39.9,30.22,NW,315,0.0,0.0,34,0.00,,,0.00,meteohub,2013-05-14 22:00:00,
2013-05-14 18:06:00,70.0,40.3,30.22,SSE,158,1.0,2.0,34,0.00,,,0.00,meteohub,2013-05-14 22:06:00,
2013-05-14 18:11:00,70.3,41.4,30.21,SSE,158,0.0,2.0,35,0.00,,,0.00,meteohub,2013-05-14 22:11:00,
2013-05-14 18:16:00,70.3,39.9,30.21,SE,135,0.0,2.0,33,0.00,,,0.00,meteohub,2013-05-14 22:16:00,
2013-05-14 18:21:00,70.0,38.8,30.21,South,180,0.0,2.0,32,0.00,,,0.00,meteohub,2013-05-14 22:21:00,
2013-05-14 18:26:00,69.8,39.4,30.21,South,180,0.0,2.0,33,0.00,,,0.00,meteohub,2013-05-14 22:26:00,
2013-05-14 18:31:00,69.6,39.9,30.21,South,180,0.0,2.0,34,0.00,,,0.00,meteohub,2013-05-14 22:31:00,
2013-05-14 18:36:00,69.6,40.8,30.21,South,180,1.0,1.0,35,0.00,,,0.00,meteohub,2013-05-14 22:36:00,
2013-05-14 18:41:00,69.4,39.9,30.21,South,180,0.0,1.0,34,0.00,,,0.00,meteohub,2013-05-14 22:41:00,
2013-05-14 18:46:00,69.4,40.6,30.21,South,180,0.0,1.0,35,0.00,,,0.00,meteohub,2013-05-14 22:46:00,
2013-05-14 18:51:00,69.4,40.6,30.21,South,180,0.0,1.0,35,0.00,,,0.00,meteohub,2013-05-14 22:51:00,
2013-05-14 18:56:00,69.6,40.8,30.20,South,180,0.0,1.0,35,0.00,,,0.00,meteohub,2013-05-14 22:56:00,
2013-05-14 19:01:00,69.8,40.1,30.20,South,180,0.0,1.0,34,0.00,,,0.00,meteohub,2013-05-14 23:01:00,
2013-05-14 19:07:00,69.8,39.4,30.20,South,180,0.0,2.0,33,0.00,,,0.00,meteohub,2013-05-14 23:07:00,
2013-05-14 19:12:00,69.8,40.1,30.20,South,180,0.0,2.0,34,0.00,,,0.00,meteohub,2013-05-14 23:12:00,
2013-05-14 19:17:00,69.8,41.0,30.20,South,180,0.0,2.0,35,0.00,,,0.00,meteohub,2013-05-14 23:17:00,
2013-05-14 19:22:00,69.6,41.5,30.20,South,180,0.0,1.0,36,0.00,,,0.00,meteohub,2013-05-14 23:22:00,
2013-05-14 19:27:00,69.3,41.9,30.19,South,180,0.0,0.0,37,0.00,,,0.00,meteohub,2013-05-14 23:27:00,
2013-05-14 19:32:00,69.1,41.7,30.19,South,180,0.0,0.0,37,0.00,,,0.00,meteohub,2013-05-14 23:32:00,
2013-05-14 19:38:00,68.7,42.8,30.19,South,180,0.0,0.0,39,0.00,,,0.00,meteohub,2013-05-14 23:38:00,
2013-05-14 19:42:00,68.5,42.6,30.19,South,180,0.0,0.0,39,0.00,,,0.00,meteohub,2013-05-14 23:42:00,
2013-05-14 19:48:00,68.2,41.5,30.19,South,180,0.0,0.0,38,0.00,,,0.00,meteohub,2013-05-14 23:48:00,
2013-05-14 19:53:00,68.0,41.4,30.20,South,180,0.0,0.0,38,0.00,,,0.00,meteohub,2013-05-14 23:53:00,
2013-05-14 19:58:00,67.6,41.7,30.20,South,180,0.0,0.0,39,0.00,,,0.00,meteohub,2013-05-14 23:58:00,
2013-05-14 20:03:00,67.3,42.8,30.20,South,180,0.0,0.0,41,0.00,,,0.00,meteohub,2013-05-15 00:03:00,
2013-05-14 20:09:00,66.9,43.2,30.20,South,180,0.0,0.0,42,0.00,,,0.00,meteohub,2013-05-15 00:09:00,
2013-05-14 20:14:00,66.6,42.8,30.20,South,180,0.0,0.0,42,0.00,,,0.00,meteohub,2013-05-15 00:14:00,
2013-05-14 20:19:00,66.0,44.1,30.20,South,180,0.0,0.0,45,0.00,,,0.00,meteohub,2013-05-15 00:19:00,
2013-05-14 20:24:00,65.7,44.2,30.20,South,180,0.0,0.0,46,0.00,,,0.00,meteohub,2013-05-15 00:24:00,
2013-05-14 20:30:00,65.1,45.0,30.21,South,180,0.0,0.0,48,0.00,,,0.00,meteohub,2013-05-15 00:30:00,
2013-05-14 20:35:00,64.6,44.4,30.20,South,180,0.0,0.0,48,0.00,,,0.00,meteohub,2013-05-15 00:35:00,
2013-05-14 20:40:00,63.9,44.8,30.20,South,180,0.0,0.0,50,0.00,,,0.00,meteohub,2013-05-15 00:40:00,
2013-05-14 20:45:00,63.5,45.0,30.20,South,180,0.0,0.0,51,0.00,,,0.00,meteohub,2013-05-15 00:45:00,
2013-05-14 20:50:00,63.0,44.6,30.20,South,180,0.0,0.0,51,0.00,,,0.00,meteohub,2013-05-15 00:50:00,
2013-05-14 20:55:00,62.6,44.8,30.20,South,180,0.0,0.0,52,0.00,,,0.00,meteohub,2013-05-15 00:55:00,
2013-05-14 21:00:00,62.4,45.1,30.20,South,180,0.0,0.0,53,0.00,,,0.00,meteohub,2013-05-15 01:00:00,
2013-05-14 21:05:00,62.1,45.1,30.20,South,180,0.0,0.0,54,0.00,,,0.00,meteohub,2013-05-15 01:05:00,
2013-05-14 21:11:00,61.7,45.3,30.20,South,180,0.0,0.0,55,0.00,,,0.00,meteohub,2013-05-15 01:11:00,
2013-05-14 21:16:00,61.5,45.1,30.19,South,180,0.0,0.0,55,0.00,,,0.00,meteohub,2013-05-15 01:16:00,
2013-05-14 21:21:00,61.3,45.5,30.20,South,180,0.0,0.0,56,0.00,,,0.00,meteohub,2013-05-15 01:21:00,
2013-05-14 21:26:00,61.2,45.3,30.20,South,180,0.0,0.0,56,0.00,,,0.00,meteohub,2013-05-15 01:26:00,
2013-05-14 21:31:00,60.8,45.0,30.20,South,180,0.0,0.0,56,0.00,,,0.00,meteohub,2013-05-15 01:31:00,
2013-05-14 21:36:00,60.8,45.5,30.20,South,180,0.0,0.0,57,0.00,,,0.00,meteohub,2013-05-15 01:36:00,
2013-05-14 21:41:00,60.4,46.0,30.20,South,180,0.0,0.0,59,0.00,,,0.00,meteohub,2013-05-15 01:41:00,
2013-05-14 21:47:00,60.3,46.4,30.20,South,180,0.0,0.0,60,0.00,,,0.00,meteohub,2013-05-15 01:47:00,
2013-05-14 21:52:00,60.1,46.6,30.20,South,180,0.0,0.0,61,0.00,,,0.00,meteohub,2013-05-15 01:52:00,
2013-05-14 21:57:00,59.9,46.4,30.20,South,180,0.0,0.0,61,0.00,,,0.00,meteohub,2013-05-15 01:57:00,
2013-05-14 22:02:00,59.9,45.1,30.20,South,180,0.0,0.0,58,0.00,,,0.00,meteohub,2013-05-15 02:02:00,
2013-05-14 22:08:00,59.9,45.1,30.20,South,180,0.0,0.0,58,0.00,,,0.00,meteohub,2013-05-15 02:08:00,
2013-05-14 22:13:00,59.7,46.2,30.20,South,180,0.0,0.0,61,0.00,,,0.00,meteohub,2013-05-15 02:13:00,
2013-05-14 22:18:00,59.7,46.2,30.21,South,180,0.0,0.0,61,0.00,,,0.00,meteohub,2013-05-15 02:18:00,
2013-05-14 22:23:00,60.1,43.9,30.20,South,180,0.0,0.0,55,0.00,,,0.00,meteohub,2013-05-15 02:23:00,
2013-05-14 22:28:00,60.6,44.4,30.20,South,180,0.0,0.0,55,0.00,,,0.00,meteohub,2013-05-15 02:28:00,
2013-05-14 22:33:00,60.8,43.0,30.21,South,180,0.0,0.0,52,0.00,,,0.00,meteohub,2013-05-15 02:33:00,
2013-05-14 22:38:00,61.3,43.0,30.20,South,180,0.0,0.0,51,0.00,,,0.00,meteohub,2013-05-15 02:38:00,
2013-05-14 22:43:00,61.3,42.6,30.20,South,180,0.0,0.0,50,0.00,,,0.00,meteohub,2013-05-15 02:43:00,
2013-05-14 22:49:00,61.5,42.3,30.20,South,180,0.0,0.0,49,0.00,,,0.00,meteohub,2013-05-15 02:49:00,
2013-05-14 22:55:00,61.9,41.9,30.19,South,180,2.0,0.0,48,0.00,,,0.00,meteohub,2013-05-15 02:55:00,
2013-05-14 23:01:00,62.2,41.7,30.19,South,180,2.0,2.0,47,0.00,,,0.00,meteohub,2013-05-15 03:01:00,
2013-05-14 23:06:00,62.4,41.4,30.19,South,180,2.0,2.0,46,0.00,,,0.00,meteohub,2013-05-15 03:06:00,
2013-05-14 23:11:00,62.8,40.5,30.19,South,180,1.0,2.0,44,0.00,,,0.00,meteohub,2013-05-15 03:11:00,
2013-05-14 23:16:00,63.0,40.6,30.19,South,180,2.0,2.0,44,0.00,,,0.00,meteohub,2013-05-15 03:16:00,
2013-05-14 23:21:00,63.1,40.8,30.19,South,180,0.0,2.0,44,0.00,,,0.00,meteohub,2013-05-15 03:21:00,
2013-05-14 23:26:00,63.1,40.8,30.19,South,180,2.0,2.0,44,0.00,,,0.00,meteohub,2013-05-15 03:26:00,
2013-05-14 23:32:00,63.1,40.8,30.19,South,180,2.0,2.0,44,0.00,,,0.00,meteohub,2013-05-15 03:32:00,
2013-05-14 23:37:00,63.0,40.6,30.19,South,180,0.0,2.0,44,0.00,,,0.00,meteohub,2013-05-15 03:37:00,
2013-05-14 23:42:00,63.0,40.6,30.19,South,180,0.0,2.0,44,0.00,,,0.00,meteohub,2013-05-15 03:42:00,
2013-05-14 23:47:00,62.8,40.5,30.18,South,180,1.0,2.0,44,0.00,,,0.00,meteohub,2013-05-15 03:47:00,
2013-05-14 23:52:00,62.8,41.2,30.19,South,180,0.0,2.0,45,0.00,,,0.00,meteohub,2013-05-15 03:52:00,
2013-05-14 23:57:00,62.6,41.0,30.19,South,180,0.0,2.0,45,0.00,,,0.00,meteohub,2013-05-15 03:57:00,